Location: Ferchesar
(52.6477°N, 12.4298°E)
Time: 12:46:31
(UTC+01:00)

Altair - Pass Details

Date: 07 December 2021
Orbit: 1501 x 1683 km, 47.2° (Epoch: 20 January)

Event Time Altitude Azimuth Distance (km) Brightness Sun altitude
Rises 21:16:55 0° 285° (WNW) 4,679 10.7 -46.7°
Reaches altitude 10° 21:20:32 10° 274° (W) 3,677 9.9 -47.2°
Enters shadow 21:25:28 24° 244° (WSW) 2,697 8.9 -47.8°
